KF0AIT Weather Reports


time (UTC)temp
C
wind
direction
speed
KPH
gust
KPH
rain 1hr
cm
rain 24hr
cm
rain mn
cm
humidity
%
barometer
mb
20260831101803 21 0 0.0 0.0 0.00 0.00 0.00 82 1005.0
20260831100924 21 0 0.0 0.0 0.00 0.00 0.00 82 1005.0
20260831100003 21 292 0.0 1.6 0.00 0.00 0.00 81 1005.0
20260831095403 21 0 0.0 0.0 0.00 0.00 0.00 81 1005.0
20260831094503 21 0 0.0 0.0 0.00 0.00 0.00 81 1005.0
20260831093603 21 0 0.0 0.0 0.00 0.00 0.00 81 1005.0
20260831092703 21 0 0.0 0.0 0.00 0.00 0.00 80 1003.9
20260831091803 21 292 0.0 1.6 0.00 0.00 0.00 79 1003.9
20260831090903 21 0 0.0 0.0 0.00 0.00 0.00 78 1003.9
20260831090024 21 310 0.0 6.4 0.00 0.00 0.00 78 1003.9
20260831085403 21 286 0.0 3.2 0.00 0.00 0.00 76 1003.9
20260831084524 21 240 0.0 3.2 0.00 0.00 0.00 74 1003.9
20260831083603 21 0 0.0 0.0 0.00 0.00 0.00 73 1003.9
20260831082703 21 0 0.0 0.0 0.00 0.00 0.00 72 1003.9
20260831081824 21 0 0.0 0.0 0.00 0.00 0.00 72 1003.9
20260831080903 21 0 0.0 0.0 0.00 0.00 0.00 71 1002.9
20260831080024 21 0 0.0 0.0 0.00 0.00 0.00 71 1002.9
20260831075403 21 0 0.0 0.0 0.00 0.00 0.00 71 1002.9
20260831074503 21 0 0.0 0.0 0.00 0.00 0.00 70 1002.9
20260831073603 21 0 0.0 0.0 0.00 0.00 0.00 70 1002.9
20260831072724 22 0 0.0 0.0 0.00 0.00 0.00 69 1002.9
20260831071803 22 0 0.0 0.0 0.00 0.00 0.00 69 1002.9
20260831070903 22 0 0.0 0.0 0.00 0.00 0.00 69 1002.9
20260831070003 22 0 0.0 0.0 0.00 0.00 0.00 68 1002.9
20260831065403 22 0 0.0 0.0 0.00 0.00 0.00 68 1002.9
20260831064503 22 0 0.0 0.0 0.00 0.00 0.00 67 1002.9
20260831063603 22 0 0.0 0.0 0.00 0.00 0.00 67 1002.9
20260831062703 22 0 0.0 0.0 0.00 0.00 0.00 66 1002.9
20260831061803 22 0 0.0 0.0 0.00 0.00 0.00 66 1002.9
20260831060903 22 0 0.0 0.0 0.00 0.00 0.00 65 1002.9
20260831060024 23 0 0.0 0.0 0.00 0.00 0.00 65 1002.9
20260831055424 23 0 0.0 0.0 0.00 0.00 0.00 65 1002.9
20260831054503 23 0 0.0 0.0 0.00 0.00 0.00 65 1002.9
20260831053603 23 0 0.0 0.0 0.00 0.00 0.00 64 1002.9
20260831052703 23 0 0.0 0.0 0.00 0.00 0.00 64 1002.9
20260831051803 23 0 0.0 0.0 0.00 0.00 0.00 64 1002.9
20260831050903 23 0 0.0 0.0 0.00 0.00 0.00 64 1002.9
20260831050003 27 0 0.0 0.0 0.00 0.00 0.00 56 1002.9
20260831045403 27 0 0.0 0.0 0.00 0.00 0.00 56 1002.9
20260831044503 27 0 0.0 0.0 0.00 0.00 0.00 56 1002.9
20260831043624 27 0 0.0 0.0 0.00 0.00 0.00 56 1002.9
20260831042724 27 0 0.0 0.0 0.00 0.00 0.00 56 1002.9
20260831041803 27 0 0.0 0.0 0.00 0.00 0.00 56 1002.9
20260831040903 27 0 0.0 0.0 0.00 0.00 0.00 56 1002.9
20260831040003 27 0 0.0 0.0 0.00 0.00 0.00 56 1002.9
20260831035424 27 0 0.0 0.0 0.00 0.00 0.00 56 1002.9
20260831034503 27 0 0.0 0.0 0.00 0.00 0.00 56 1002.9
20260831033603 27 0 0.0 0.0 0.00 0.00 0.00 56 1002.9
20260831032703 27 0 0.0 0.0 0.00 0.00 0.00 56 1002.9
20260831031803 27 0 0.0 0.0 0.00 0.00 0.00 56 1002.9
20260831030903 27 0 0.0 0.0 0.00 0.00 0.00 56 1002.9
20260831030003 27 0 0.0 0.0 0.00 0.00 0.00 56 1002.9
20260831025403 27 0 0.0 0.0 0.00 0.00 0.00 56 1002.9
20260831024503 27 0 0.0 0.0 0.00 0.00 0.00 56 1002.9
20260831023603 27 0 0.0 0.0 0.00 0.00 0.00 56 1001.8
20260831022703 27 0 0.0 0.0 0.00 0.00 0.00 56 1001.8
20260831021824 27 0 0.0 0.0 0.00 0.00 0.00 56 1001.8
20260831020903 27 0 0.0 0.0 0.00 0.00 0.00 56 1001.8
20260831020004 27 0 0.0 0.0 0.00 0.00 0.00 56 1001.8
20260831015403 27 0 0.0 0.0 0.00 0.00 0.00 56 1000.8
20260831014503 27 0 0.0 0.0 0.00 0.00 0.00 56 1000.8
20260831013603 27 0 0.0 0.0 0.00 0.00 0.00 56 1000.8
20260831012703 27 0 0.0 0.0 0.00 0.00 0.00 55 1000.8
20260831011824 28 0 0.0 0.0 0.00 0.00 0.00 53 1000.8
20260831010903 28 0 0.0 0.0 0.00 0.00 0.00 52 1000.8
20260831010003 28 0 0.0 0.0 0.00 0.00 0.00 52 1000.8
20260831005424 28 0 0.0 0.0 0.00 0.00 0.00 51 1000.8
20260831004503 29 0 0.0 0.0 0.00 0.00 0.00 52 1000.8
20260831003603 29 235 0.0 3.2 0.00 0.00 0.00 53 1000.8
20260831002703 30 247 0.0 1.6 0.00 0.00 0.00 53 1001.8
20260831001803 30 247 1.6 1.6 0.00 0.00 0.00 53 1001.8
20260831000903 30 0 0.0 0.0 0.00 0.00 0.00 54 1000.8
20260831000003 30 0 0.0 0.0 0.00 0.00 0.00 55 1000.8
20260830235403 30 0 0.0 0.0 0.00 0.00 0.00 54 1000.8
20260830234503 30 0 0.0 0.0 0.00 0.00 0.00 54 1000.8
20260830233603 30 0 0.0 0.0 0.00 0.00 0.00 54 1000.8
20260830232724 31 0 0.0 0.0 0.00 0.00 0.00 50 1000.8
20260830231803 31 0 0.0 0.0 0.00 0.00 0.00 52 1000.8
20260830230924 31 0 0.0 0.0 0.00 0.00 0.00 50 1000.8
20260830230003 31 0 0.0 0.0 0.00 0.00 0.00 50 1000.8
20260830225403 31 0 0.0 0.0 0.00 0.00 0.00 50 1000.8
20260830224503 31 0 0.0 0.0 0.00 0.00 0.00 50 1000.8
20260830223603 31 0 0.0 0.0 0.00 0.00 0.00 49 1000.8
20260830222724 31 0 0.0 0.0 0.00 0.00 0.00 50 1000.8
20260830221824 31 247 0.0 1.6 0.00 0.00 0.00 50 1000.8
20260830220903 31 0 0.0 0.0 0.00 0.00 0.00 48 1000.8
20260830220024 32 315 0.0 4.8 0.00 0.00 0.00 48 1000.8
20260830215403 31 0 0.0 0.0 0.00 0.00 0.00 49 1000.8
20260830214503 31 157 0.0 3.2 0.00 0.00 0.00 50 1000.8
20260830213603 31 209 3.2 3.2 0.00 0.00 0.00 51 1000.8
20260830212703 31 0 0.0 0.0 0.00 0.00 0.00 52 1000.8
20260830211803 31 0 0.0 0.0 0.00 0.00 0.00 52 1000.8
20260830210924 31 157 0.0 3.2 0.00 0.00 0.00 52 1000.8
20260830210003 31 157 0.0 3.2 0.00 0.00 0.00 53 1000.8
20260830205403 31 157 1.6 1.6 0.00 0.00 0.00 52 1000.8
20260830204503 31 292 0.0 8.0 0.00 0.00 0.00 53 1000.8
20260830203603 31 285 0.0 1.6 0.00 0.00 0.00 53 1001.8
20260830202703 31 157 0.0 1.6 0.00 0.00 0.00 56 1000.8
20260830201803 31 157 0.0 1.6 0.00 0.00 0.00 58 1000.8
20260830200903 31 215 0.0 3.2 0.00 0.00 0.00 59 1001.8
20260830200003 31 230 0.0 9.7 0.00 0.00 0.00 59 1001.8
20260830195403 31 255 8.0 9.7 0.00 0.00 0.00 60 1001.8
20260830194503 31 157 1.6 3.2 0.00 0.00 0.00 61 1001.8
20260830193603 31 172 0.0 3.2 0.00 0.00 0.00 62 1001.8
20260830192703 30 180 3.2 3.2 0.00 0.00 0.00 63 1001.8
20260830191803 30 247 0.0 3.2 0.00 0.00 0.00 64 1001.8
20260830190924 30 234 0.0 4.8 0.00 0.00 0.00 65 1001.8
20260830190003 30 292 0.0 8.0 0.00 0.00 0.00 66 1001.8
20260830185403 30 292 0.0 8.0 0.00 0.00 0.00 65 1001.8
20260830184503 29 180 0.0 1.6 0.00 0.00 0.00 74 1001.8
20260830183603 29 283 1.6 3.2 0.00 0.00 0.00 74 1001.8
20260830182703 29 0 0.0 0.0 0.00 0.00 0.00 77 1001.8
20260830181803 29 0 0.0 0.0 0.00 0.00 0.00 77 1001.8
20260830180903 28 0 0.0 0.0 0.00 0.00 0.00 77 1002.9
20260830180003 28 247 0.0 3.2 0.00 0.00 0.00 77 1002.9
20260830175403 28 247 0.0 3.2 0.00 0.00 0.00 78 1002.9
20260830174503 28 180 0.0 3.2 0.00 0.00 0.00 79 1002.9
20260830173603 27 180 0.0 1.6 0.00 0.00 0.00 79 1002.9
20260830172703 27 180 0.0 3.2 0.00 0.00 0.00 80 1002.9
20260830171803 27 180 0.0 3.2 0.00 0.00 0.00 80 1002.9
20260830170903 27 0 0.0 0.0 0.00 0.00 0.00 82 1002.9
20260830170024 26 180 0.0 1.6 0.00 0.00 0.00 83 1002.9
20260830165424 26 180 1.6 1.6 0.00 0.00 0.00 84 1002.9
20260830164503 26 0 0.0 0.0 0.00 0.00 0.00 85 1002.9
20260830163603 26 180 0.0 4.8 0.00 0.00 0.00 85 1002.9
20260830162724 26 180 0.0 1.6 0.00 0.00 0.00 86 1002.9
20260830161803 25 180 0.0 3.2 0.00 0.00 0.00 87 1002.9
20260830160903 25 0 0.0 0.0 0.00 0.00 0.00 88 1002.9
20260830160003 25 0 0.0 0.0 0.00 0.00 0.00 88 1002.9
20260830155403 25 180 0.0 1.6 0.00 0.00 0.00 88 1002.9
20260830154503 24 180 1.6 3.2 0.00 0.00 0.00 89 1002.9
20260830153603 24 0 0.0 0.0 0.00 0.00 0.00 89 1002.9
20260830152703 23 0 0.0 0.0 0.00 0.00 0.00 89 1002.9
20260830151803 23 180 0.0 1.6 0.00 0.00 0.00 90 1002.9
20260830150924 23 0 0.0 0.0 0.00 0.00 0.00 90 1002.9
20260830150003 23 0 0.0 0.0 0.00 0.00 0.00 90 1002.9
20260830145403 23 360 0.0 1.6 0.00 0.00 0.00 90 1002.9
20260830144503 22 360 1.6 1.6 0.00 0.00 0.00 91 1002.9
20260830143624 22 0 0.0 0.0 0.00 0.00 0.00 92 1002.9
20260830142703 22 0 0.0 0.0 0.00 0.00 0.00 92 1002.9
20260830141824 22 22 0.0 1.6 0.00 0.00 0.00 92 1002.9
20260830140924 22 0 0.0 0.0 0.00 0.00 0.00 92 1002.9
20260830140003 21 0 0.0 0.0 0.00 0.00 0.00 92 1002.9
20260830135403 21 0 0.0 0.0 0.00 0.00 0.00 92 1002.9
20260830134503 21 0 0.0 0.0 0.00 0.00 0.00 92 1002.9
20260830133603 21 0 0.0 0.0 0.00 0.00 0.00 92 1002.9
20260830132703 21 0 0.0 0.0 0.00 0.00 0.00 91 1002.9
20260830131824 21 0 0.0 0.0 0.00 0.00 0.00 91 1002.9
20260830130903 21 0 0.0 0.0 0.00 0.00 0.00 92 1002.9
20260830130003 21 0 0.0 0.0 0.00 0.00 0.00 91 1002.9
20260830125403 21 0 0.0 0.0 0.00 0.00 0.00 92 1002.9
20260830124503 20 0 0.0 0.0 0.00 0.00 0.00 91 1002.9
20260830123603 20 0 0.0 0.0 0.00 0.00 0.00 91 1002.9
20260830122703 20 0 0.0 0.0 0.00 0.00 0.00 91 1001.8
20260830121824 20 0 0.0 0.0 0.00 0.00 0.00 91 1001.8
20260830120903 20 0 0.0 0.0 0.00 0.00 0.00 91 1002.9
20260830120003 20 0 0.0 0.0 0.00 0.00 0.00 91 1002.9
20260830115424 20 0 0.0 0.0 0.00 0.00 0.00 91 1002.9
20260830114503 20 0 0.0 0.0 0.00 0.00 0.00 91 1002.9
20260830113603 20 0 0.0 0.0 0.00 0.00 0.00 91 1002.9
20260830112703 21 0 0.0 0.0 0.00 0.00 0.00 91 1001.8
20260830111803 21 0 0.0 0.0 0.00 0.00 0.00 91 1001.8
20260830110903 21 0 0.0 0.0 0.00 0.00 0.00 91 1002.9
20260830110004 21 0 0.0 0.0 0.00 0.00 0.00 90 1002.9
20260830105403 21 0 0.0 0.0 0.00 0.00 0.00 90 1002.9
20260830104503 21 0 0.0 0.0 0.00 0.00 0.00 90 1002.9
20260830103603 21 0 0.0 0.0 0.00 0.00 0.00 90 1001.8
20260830102703 21 0 0.0 0.0 0.00 0.00 0.00 90 1002.9